Kirksville, MO

7:14 AM CDT on August 23, 2017 (GMT -0500)
Kirksville Regional

Weather History for KIRK - March, 2012

Change the Weather History Date:

Sunday, March 25, 2012

  Actual Average Record
Temperature  
Mean Temperature 61 °F 44 °F  
Max Temperature 77 °F 55 °F 79 °F (1928)
Min Temperature 44 °F 34 °F 9 °F (1965)
Degree Days  
Heating Degree Days 4 21  
Month to date heating degree days 313 638  
Since 1 July heating degree days 4251 5171  
Cooling Degree Days 0 0  
Month to date cooling degree days 18 0  
Year to date cooling degree days 18 0  
Growing Degree Days 10 (Base 50)    
Moisture  
Dew Point 50 °F    
Average Humidity 71    
Maximum Humidity 100    
Minimum Humidity 41    
Precipitation  
Precipitation 0.00 in 0.08 in 3.16 in (1920)
Month to date precipitation 2.59 2.08  
Year to date precipitation 5.13 4.88  
Sea Level Pressure  
Sea Level Pressure 30.05 in    
Wind  
Wind Speed 2 mph (North)    
Max Wind Speed 9 mph    
Max Gust Speed 14 mph    
Visibility 4 miles    
Events Fog    
T = Trace of Precipitation, MM = Missing Value Source: NWS Daily Summary

Daily Weather History Graph

Daily Weather History Graph

Search for Another Location

Airport or City:

Trip Planner

Search our weather history database for the weather conditions in past years. The results will help you decide how hot, cold, wet, or windy it might be!

Date:

Astronomy

Mar. 25, 2012 Rise Set
Actual Time 7:04 AM CDT 7:27 PM CDT
Civil Twilight 6:37 AM CDT 7:55 PM CDT
Nautical Twilight 6:05 AM CDT 8:27 PM CDT
Astronomical Twilight 5:32 AM CDT 8:59 PM CDT
Moon 8:17 AM CDT (3/25) 10:44 PM CDT (3/25)
Length of Visible Light 13h 17m
Length of Day
12h 23m
Waxing Crescent, 9% of the Moon is Illuminated
Mar 25
Waxing Crescent
Mar 30
First Quarter
Apr 6
Full
Apr 13
Last Quarter
Apr 21
New

Hourly Weather History & Observations

Time (CDT) Temp. Windchill Dew Point Humidity Pressure Visibility Wind Dir Wind Speed Gust Speed Precip Events Conditions
12:06 AM 51.8 °F - 51.8 °F 100% 30.02 in 1.5 mi Calm Calm - N/A   Clear
12:09 AM 51.8 °F - 51.8 °F 100% 30.02 in 0.5 mi Calm Calm - N/A Fog Fog
12:20 AM 50.0 °F - 50.0 °F 100% 30.02 in 1.0 mi NNW 3.5 mph - N/A   Clear
12:31 AM 51.8 °F - 51.8 °F 100% 30.02 in 4.0 mi NNW 3.5 mph - N/A   Clear
12:38 AM 50.0 °F - 50.0 °F 100% 30.01 in 1.8 mi NNW 3.5 mph - N/A   Clear
12:49 AM 48.2 °F - 48.2 °F 100% 30.02 in 3.0 mi Calm Calm - N/A   Clear
12:55 AM 48.9 °F - 48.0 °F 97% 30.02 in 6.0 mi Calm Calm - N/A   Clear
1:30 AM 48.2 °F - 48.2 °F 100% 30.02 in 2.0 mi North 4.6 mph - N/A   Clear
1:40 AM 53.6 °F - 53.6 °F 100% 30.02 in 5.0 mi North 4.6 mph - N/A   Clear
1:55 AM 53.1 °F - 53.1 °F 100% 30.03 in 5.0 mi North 4.6 mph - N/A   Clear
2:01 AM 50.0 °F - 50.0 °F 100% 30.02 in 1.5 mi NNW 3.5 mph - N/A   Clear
2:05 AM 48.2 °F - 48.2 °F 100% 30.03 in 0.5 mi NNW 3.5 mph - N/A Fog Fog
2:22 AM 51.8 °F - 51.8 °F 100% 30.03 in 1.0 mi North 3.5 mph - N/A   Clear
2:26 AM 53.6 °F - 53.6 °F 100% 30.03 in 3.0 mi NNE 4.6 mph - N/A   Clear
2:45 AM 51.8 °F - 51.8 °F 100% 30.03 in 0.8 mi Calm Calm - N/A   Clear
2:52 AM 48.2 °F - 48.2 °F 100% 30.03 in 0.2 mi NW 3.5 mph - N/A Fog Fog
2:55 AM 48.0 °F - 48.0 °F 100% 30.04 in 0.2 mi NNW 3.5 mph - N/A Fog Fog
3:02 AM 46.4 °F - 46.4 °F 100% 30.03 in 0.8 mi Calm Calm - N/A   Clear
3:06 AM 46.4 °F 45.2 °F 46.4 °F 100% 30.03 in 2.0 mi WNW 3.5 mph - N/A   Clear
3:20 AM 48.2 °F - 48.2 °F 100% 30.03 in 0.8 mi Calm Calm - N/A   Mist
3:27 AM 48.2 °F - 48.2 °F 100% 30.03 in 0.2 mi NNW 3.5 mph - N/A Fog Fog
3:44 AM 51.8 °F - 51.8 °F 100% 30.03 in 1.0 mi North 3.5 mph - N/A   Mist
3:47 AM 48.2 °F - 48.2 °F 100% 30.03 in 0.5 mi NNW 3.5 mph - N/A Fog Fog
3:55 AM 46.9 °F - 46.0 °F 97% 30.04 in 0.2 mi NNW 3.5 mph - N/A Fog Fog
4:17 AM 46.4 °F - 46.4 °F 100% 30.03 in 1.2 mi Calm Calm - N/A   Partly Cloudy
4:20 AM 46.4 °F - 46.4 °F 100% 30.03 in 3.0 mi Calm Calm - N/A   Partly Cloudy
4:23 AM 46.4 °F - 46.4 °F 100% 30.03 in 1.2 mi Calm Calm - N/A   Partly Cloudy
4:25 AM 46.4 °F - 46.4 °F 100% 30.03 in 0.5 mi Calm Calm - N/A Fog Fog
4:55 AM 46.0 °F - 45.0 °F 96% 30.05 in 0.2 mi Calm Calm - N/A Fog Fog
5:55 AM 46.0 °F - 46.0 °F 100% 30.07 in 0.2 mi Calm Calm - N/A Fog Fog
6:55 AM 44.1 °F - 44.1 °F 100% 30.09 in 0.2 mi Calm Calm - N/A Fog Fog
7:07 AM 44.6 °F 43.1 °F 44.6 °F 100% 30.08 in 0.8 mi NNW 3.5 mph - N/A   Overcast
7:12 AM 46.4 °F 45.2 °F 46.4 °F 100% 30.08 in 2.0 mi NNW 3.5 mph - N/A   Overcast
7:20 AM 46.4 °F 45.2 °F 46.4 °F 100% 30.08 in 4.0 mi NNW 3.5 mph - N/A   Overcast
7:35 AM 50.0 °F - 48.2 °F 94% 30.09 in 1.8 mi NNW 3.5 mph - N/A   Overcast
7:49 AM 50.0 °F - 48.2 °F 94% 30.09 in 3.0 mi Calm Calm - N/A   Overcast
7:55 AM 51.1 °F - 50.0 °F 96% 30.10 in 9.0 mi NW 3.5 mph - N/A   Overcast
8:55 AM 57.0 °F - 55.9 °F 96% 30.12 in 5.0 mi North 3.5 mph - N/A   Overcast
9:55 AM 62.1 °F - 57.0 °F 84% 30.12 in 10.0 mi NE 4.6 mph - N/A   Mostly Cloudy
10:07 AM 64.4 °F - 57.2 °F 77% 30.11 in 10.0 mi Variable 3.5 mph - N/A   Scattered Clouds
10:55 AM 66.2 °F - 57.2 °F 73% 30.12 in 10.0 mi Calm Calm - N/A   Mostly Cloudy
11:22 AM 66.2 °F - 55.4 °F 68% 30.11 in 10.0 mi Calm Calm - N/A   Scattered Clouds
11:55 AM 70.0 °F - 57.0 °F 63% 30.11 in 3.0 mi Calm Calm - N/A   Haze
12:55 PM 72.0 °F - 52.0 °F 49% 30.09 in 10.0 mi NNE 6.9 mph - N/A   Clear
1:55 PM 73.0 °F - 54.0 °F 51% 30.08 in 10.0 mi NE 5.8 mph - N/A   Clear
2:55 PM 75.0 °F - 50.0 °F 41% 30.06 in 10.0 mi Variable 3.5 mph - N/A   Clear
3:55 PM 75.9 °F - 50.0 °F 40% 30.05 in 10.0 mi NE 3.5 mph - N/A   Clear
4:55 PM 75.9 °F - 52.0 °F 43% 30.05 in 10.0 mi NNE 3.5 mph - N/A   Clear
5:55 PM 73.9 °F - 53.1 °F 48% 30.05 in 10.0 mi Calm Calm - N/A   Clear
6:55 PM 69.1 °F - 52.0 °F 54% 30.06 in 10.0 mi ENE 4.6 mph - N/A   Clear
7:55 PM 64.0 °F - 52.0 °F 65% 30.06 in 10.0 mi Calm Calm - N/A   Clear
8:55 PM 60.1 °F - 51.1 °F 72% 30.07 in 10.0 mi Calm Calm - N/A   Clear
9:55 PM 57.9 °F - 50.0 °F 75% 30.08 in 10.0 mi ESE 3.5 mph - N/A   Clear
10:55 PM 57.0 °F - 51.1 °F 81% 30.08 in 10.0 mi ESE 3.5 mph - N/A   Clear
11:55 PM 54.0 °F - 50.0 °F 86% 30.08 in 10.0 mi Calm Calm - N/A   Clear